Location: Waco, TX
(31.5480°N, 97.1670°W)
Time: 00:06:06
(UTC-06:00)

ISS - Pass Details

Date: 10 November 2018
Orbit: 401 x 409 km, 51.6° (Epoch: 21 November)

Event Time Altitude Azimuth Distance (km) Brightness Sun altitude
Rises 00:10:07 0° 237° (WSW) 2,298 - -75.6°
Reaches altitude 10° 00:12:14 10° 245° (WSW) 1,443 - -75.6°
Maximum altitude 00:15:20 43° 318° (NW) 576 - -75.6°
Drops below altitude 10° 00:18:28 10° 32° (NNE) 1,451 - -75.5°
Sets 00:20:36 0° 39° (NE) 2,314 - -75.5°
